Date String (YYYY-MM-DD hh:mm:ss) UTC,Instrument flags,absolute air pressure of the measurement (hPa),sample flow rate (lpm),inlet stack bypass flow (lpm),air temperature of the measurement (°C),ambient temperature measured by the external sensor (°C),aerosol sample conditioner tube jacket temperature (°C),OPC LED temperature (°C),internal box temperature (°C),relative humidity of the measurement (%),span deviation,mass concentration of particles derived from Lorenz-Mie calculation of OPC scattering (μg/m³),mass concentration of particles derived from Lorenz-Mie calculation of OPC scattering (μg/m³),mass concentration of particles derived from Lorenz-Mie calculation of OPC scattering (μg/m³)
DateTimeUTC,F1_M11,P_M11,Q1_M11,Q2_M11,T1_M11,T2_M11,T3_M11,T4_M11,T5_M11,U1_M11,ZSPAN_M11,X0_M11,X2_M11,X1_M11
2024-03-09 11:00:00,SystemResetWarning,0832.3,4.99,000.00,018.9,019.0,000.0,027.4,020.9,12.9,0000.0,0003.87,0003.11,0002.91
2024-03-09 11:01:00,SystemResetWarning,0832.3,4.98,000.00,018.8,018.6,000.0,027.3,020.6,12.9,0000.0,0003.91,0003.12,0002.91
2024-03-09 11:02:00,SystemResetWarning,0832.3,5.01,000.00,018.7,018.2,000.0,027.3,020.3,12.9,0000.0,0003.97,0003.14,0002.89
2024-03-09 11:03:00,SystemResetWarning,0832.3,5.01,000.00,018.6,017.8,000.0,027.2,020.0,13.0,0000.0,0003.88,0003.12,0002.87
2024-03-09 11:04:00,SystemResetWarning,0832.3,4.99,000.00,018.5,017.4,000.0,027.2,020.0,13.0,0000.0,0003.68,0003.09,0002.85
2024-03-09 11:05:00,SystemResetWarning,0832.3,4.99,000.00,018.5,017.1,000.0,027.3,020.0,13.1,0000.0,0005.01,0003.08,0002.85
2024-03-09 11:06:00,SystemResetWarning,0832.3,5.00,000.00,018.4,017.0,000.0,027.3,020.0,13.1,0000.0,0005.25,0003.08,0002.83
2024-03-09 11:07:00,SystemResetWarning,0832.3,5.02,000.00,018.5,017.6,000.0,027.3,020.3,13.1,0000.0,0005.26,0003.08,0002.84
2024-03-09 11:08:00,SystemResetWarning,0832.4,4.99,000.00,018.7,018.6,000.0,027.4,020.8,12.9,0000.0,0005.28,0003.09,0002.83
2024-03-09 11:09:00,SystemResetWarning,0832.3,4.99,000.00,018.9,019.1,000.0,027.4,021.1,12.8,0000.0,0005.29,0003.08,0002.82
2024-03-09 11:10:00,SystemResetWarning,0832.3,4.99,000.00,018.9,018.8,000.0,027.3,020.7,12.7,0000.0,0005.17,0003.06,0002.81
2024-03-09 11:11:00,SystemResetWarning,0832.3,5.02,000.00,018.8,018.4,000.0,027.3,020.4,12.8,0000.0,0005.15,0003.05,0002.80
2024-03-09 11:12:00,SystemResetWarning,0832.3,5.00,000.00,018.6,018.0,000.0,027.2,020.1,12.9,0000.0,0005.11,0003.01,0002.78
2024-03-09 11:13:00,SystemResetWarning,0832.3,5.00,000.00,018.5,017.6,000.0,027.2,020.0,13.0,0000.0,0004.99,0002.95,0002.76
2024-03-09 11:14:00,SystemResetWarning,0832.3,4.98,000.00,018.5,017.3,000.0,027.3,020.0,13.0,0000.0,0004.96,0002.92,0002.74
2024-03-09 11:15:00,SystemResetWarning,0832.3,5.01,000.00,018.5,017.4,000.0,027.3,020.1,13.0,0000.0,0004.95,0002.91,0002.73
2024-03-09 11:16:00,SystemResetWarning,0832.3,5.02,000.00,018.6,018.3,000.0,027.3,020.6,13.0,0000.0,0003.87,0002.90,0002.71
2024-03-09 11:17:00,SystemResetWarning,0832.3,4.98,000.00,018.8,019.1,000.0,027.4,021.1,12.8,0000.0,0004.34,0002.91,0002.70
2024-03-09 11:18:00,SystemResetWarning,0832.3,5.00,000.00,019.0,019.1,000.0,027.4,021.0,12.7,0000.0,0004.31,0002.88,0002.68
2024-03-09 11:19:00,SystemResetWarning,0832.3,5.01,000.00,018.9,018.7,000.0,027.3,020.7,12.7,0000.0,0004.34,0002.89,0002.67
2024-03-09 11:20:00,SystemResetWarning,0832.3,5.00,000.00,018.8,018.3,000.0,027.3,020.3,12.7,0000.0,0004.32,0002.89,0002.67
2024-03-09 11:21:00,SystemResetWarning,0832.3,4.99,000.00,018.7,017.9,000.0,027.2,020.1,12.8,0000.0,0004.37,0002.90,0002.65
2024-03-09 11:22:00,SystemResetWarning,0832.3,4.99,000.00,018.6,017.5,000.0,027.2,020.0,12.9,0000.0,0004.37,0002.89,0002.64
2024-03-09 11:23:00,SystemResetWarning,0832.3,5.00,000.00,018.5,017.2,000.0,027.3,020.0,12.9,0000.0,0004.37,0002.87,0002.62
2024-03-09 11:24:00,SystemResetWarning,0832.2,5.00,000.00,018.4,017.2,000.0,027.3,020.1,13.0,0000.0,0004.39,0002.87,0002.61
2024-03-09 11:25:00,SystemResetWarning,0832.3,5.01,000.00,018.6,018.2,000.0,027.4,020.6,12.9,0000.0,0004.43,0002.87,0002.61
2024-03-09 11:26:00,SystemResetWarning,0832.3,4.98,000.00,018.8,019.1,000.0,027.4,021.1,12.8,0000.0,0004.42,0002.86,0002.60
2024-03-09 11:27:00,SystemResetWarning,0832.3,4.99,000.00,019.0,019.2,000.0,027.4,021.0,12.7,0000.0,0004.40,0002.85,0002.59
2024-03-09 11:28:00,SystemResetWarning,0832.2,5.00,000.00,018.9,018.8,000.0,027.3,020.7,12.7,0000.0,0003.70,0002.84,0002.59
2024-03-09 11:29:00,SystemResetWarning,0832.2,5.00,000.00,018.8,018.3,000.0,027.3,020.4,12.8,0000.0,0003.32,0002.82,0002.60
2024-03-09 11:30:00,SystemResetWarning,0832.2,5.00,000.00,018.7,017.9,000.0,027.3,020.1,12.8,0000.0,0003.43,0002.81,0002.61
2024-03-09 11:31:00,SystemResetWarning,0832.2,4.99,000.00,018.6,017.5,000.0,027.3,020.0,12.9,0000.0,0003.37,0002.78,0002.60
2024-03-09 11:32:00,SystemResetWarning,0832.2,5.00,000.00,018.5,017.2,000.0,027.3,020.0,13.0,0000.0,0003.36,0002.78,0002.61
2024-03-09 11:33:00,SystemResetWarning,0832.2,5.01,000.00,018.5,017.2,000.0,027.3,020.1,13.0,0000.0,0003.35,0002.78,0002.62
2024-03-09 11:34:00,SystemResetWarning,0832.2,5.00,000.00,018.6,018.1,000.0,027.4,020.6,12.9,0000.0,0003.39,0002.81,0002.64
2024-03-09 11:35:00,SystemResetWarning,0832.2,4.99,000.00,018.8,019.0,000.0,027.4,021.1,12.7,0000.0,0003.44,0002.84,0002.65
2024-03-09 11:36:00,SystemResetWarning,0832.2,4.99,000.00,019.0,019.2,000.0,027.4,021.1,12.6,0000.0,0003.42,0002.84,0002.65
2024-03-09 11:37:00,SystemResetWarning,0832.2,5.00,000.00,018.9,018.8,000.0,027.3,020.7,12.6,0000.0,0003.45,0002.85,0002.66
2024-03-09 11:38:00,SystemResetWarning,0832.2,5.01,000.00,018.8,018.4,000.0,027.3,020.4,12.7,0000.0,0003.46,0002.87,0002.68
2024-03-09 11:39:00,SystemResetWarning,0832.2,4.99,000.00,018.7,017.9,000.0,027.3,020.1,12.7,0000.0,0003.43,0002.85,0002.67
2024-03-09 11:40:00,SystemResetWarning,0832.2,5.00,000.00,018.6,017.5,000.0,027.3,020.0,12.8,0000.0,0003.46,0002.86,0002.67
2024-03-09 11:41:00,SystemResetWarning,0832.2,5.02,000.00,018.5,017.2,000.0,027.3,020.0,12.8,0000.0,0003.34,0002.86,0002.67
2024-03-09 11:42:00,SystemResetWarning,0832.2,5.00,000.00,018.5,017.1,000.0,027.3,020.1,12.8,0000.0,0003.37,0002.89,0002.68
2024-03-09 11:43:00,SystemResetWarning,0832.2,5.00,000.00,018.6,018.0,000.0,027.4,020.5,12.7,0000.0,0003.39,0002.91,0002.68
2024-03-09 11:44:00,SystemResetWarning,0832.1,5.01,000.00,018.8,018.9,000.0,027.4,021.0,12.6,0000.0,0003.47,0002.95,0002.69
2024-03-09 11:45:00,SystemResetWarning,0832.2,4.99,000.00,019.0,019.2,000.0,027.4,021.1,12.4,0000.0,0003.46,0002.94,0002.68
2024-03-09 11:46:00,SystemResetWarning,0832.2,4.98,000.00,018.9,018.8,000.0,027.4,020.7,12.4,0000.0,0003.35,0002.89,0002.67
2024-03-09 11:47:00,SystemResetWarning,0832.1,5.00,000.00,018.8,018.3,000.0,027.3,020.4,12.5,0000.0,0003.32,0002.88,0002.67
2024-03-09 11:48:00,SystemResetWarning,0832.1,5.00,000.00,018.7,017.9,000.0,027.3,020.1,12.6,0000.0,0003.32,0002.88,0002.67
2024-03-09 11:49:00,SystemResetWarning,0832.1,5.00,000.00,018.6,017.5,000.0,027.3,020.0,12.7,0000.0,0003.47,0002.89,0002.67
2024-03-09 11:50:00,SystemResetWarning,0832.1,5.01,000.00,018.5,017.3,000.0,027.3,020.0,12.7,0000.0,0003.50,0002.90,0002.67
2024-03-09 11:51:00,SystemResetWarning,0832.1,5.01,000.00,018.5,017.1,000.0,027.3,020.1,12.7,0000.0,0003.47,0002.87,0002.65
2024-03-09 11:52:00,SystemResetWarning,0832.1,5.00,000.00,018.6,017.9,000.0,027.4,020.4,12.6,0000.0,0003.52,0002.88,0002.64
2024-03-09 11:53:00,SystemResetWarning,0832.2,5.00,000.00,018.8,018.8,000.0,027.4,021.0,12.5,0000.0,0003.50,0002.85,0002.62
2024-03-09 11:54:00,SystemResetWarning,0832.1,5.00,000.00,019.0,019.1,000.0,027.4,021.1,12.4,0000.0,0003.42,0002.81,0002.60
2024-03-09 11:55:00,SystemResetWarning,0832.0,4.99,000.00,018.9,018.7,000.0,027.3,020.7,12.3,0000.0,0003.30,0002.74,0002.58
2024-03-09 11:56:00,SystemResetWarning,0832.0,4.99,000.00,018.8,018.3,000.0,027.3,020.4,12.4,0000.0,0003.26,0002.71,0002.56
2024-03-09 11:57:00,SystemResetWarning,0832.0,5.00,000.00,018.7,017.9,000.0,027.3,020.1,12.5,0000.0,0003.24,0002.70,0002.53
2024-03-09 11:58:00,SystemResetWarning,0832.0,5.00,000.00,018.6,017.5,000.0,027.3,020.0,12.5,0000.0,0003.25,0002.69,0002.51
2024-03-09 11:59:00,SystemResetWarning,0832.0,5.01,000.00,018.5,017.2,000.0,027.3,020.0,12.6,0000.0,0003.18,0002.65,0002.48
